Location: Stoke Bliss
(52.2667°N, 2.5167°W)
Time: 21:35:18
(UTC+00:00)

Cosmos 2219 Rocket - Pass Details

Date: 03 March 2021
Orbit: 826 x 848 km, 71.0° (Epoch: 15 April)

Event Time Altitude Azimuth Distance (km) Brightness Sun altitude
Rises 22:53:44 0° 266° (W) 3,372 5.6 -40.7°
Reaches altitude 10° 22:56:52 10° 283° (WNW) 2,445 4.9 -41.0°
Maximum altitude 23:00:53 20° 329° (NNW) 1,860 4.5 -41.3°
Drops below altitude 10° 23:04:56 10° 15° (NNE) 2,461 5.0 -41.5°
Sets 23:08:06 0° 33° (NNE) 3,403 5.7 -41.7°
